This is the latest recevied weather packets stored in our database for station/object WE1C. If no packets are shown the sender has not sent any weather packets the latest 1 day(s).
| Time | Temp. | Humidity | Pressure | Rain* | Wind** | Luminosity | Snow |
|---|---|---|---|---|---|---|---|
| 1778020004 | 22.78° C | 46% | 1036.2 hPa | 0 mm | 0.89 m/s, 212° | 75 W/m² | - |
| 1778019700 | 23.33° C | 46% | 1036.2 hPa | 0 mm | 2.68 m/s, 199° | 85 W/m² | - |
| 1778019392 | 23.33° C | 46% | 1036.2 hPa | 0 mm | 0.89 m/s, 211° | 85 W/m² | - |
| 1778019089 | 23.33° C | 46% | 1036.2 hPa | 0 mm | 1.79 m/s, 208° | 102 W/m² | - |
| 1778018786 | 23.89° C | 45% | 1035.8 hPa | 0 mm | 0.89 m/s, 151° | 106 W/m² | - |
| 1778018483 | 23.89° C | 44% | 1035.8 hPa | 0 mm | 2.24 m/s, 183° | 120 W/m² | - |
| 1778018181 | 23.89° C | 44% | 1035.8 hPa | 0 mm | 0.89 m/s, 96° | 125 W/m² | - |
| 1778017879 | 23.89° C | 44% | 1036 hPa | 0 mm | 1.34 m/s, 169° | 113 W/m² | - |
| 1778017577 | 24.44° C | 43% | 1036.1 hPa | 0 mm | 1.79 m/s, 27° | 110 W/m² | - |
| 1778017273 | 24.44° C | 42% | 1035.9 hPa | 0 mm | 1.34 m/s, 190° | 115 W/m² | - |
| 1778016971 | 24.44° C | 41% | 1035.9 hPa | 0 mm | 1.79 m/s, 178° | 137 W/m² | - |
| 1778016667 | 25° C | 41% | 1036.1 hPa | 0 mm | 2.68 m/s, 201° | 146 W/m² | - |
| 1778016364 | 25° C | 41% | 1035.8 hPa | 0 mm | 0.89 m/s, 175° | 155 W/m² | - |
| 1778016066 | 25° C | 41% | 1035.8 hPa | 0 mm | 1.34 m/s, 187° | 121 W/m² | - |
| 1778015758 | 25° C | 40% | 1035.8 hPa | 0 mm | 3.58 m/s, 194° | 127 W/m² | - |
| 1778015456 | 25° C | 40% | 1035.6 hPa | 0 mm | 1.79 m/s, 103° | 131 W/m² | - |
| 1778015152 | 25° C | 39% | 1035.5 hPa | 0 mm | 2.24 m/s, 280° | 117 W/m² | - |
| 1778014849 | 25.56° C | 39% | 1035.6 hPa | 0 mm | 0.45 m/s, 199° | 121 W/m² | - |
| 1778014547 | 26.11° C | 38% | 1035.7 hPa | 0 mm | 1.79 m/s, 16° | 137 W/m² | - |
| 1778014244 | 26.11° C | 36% | 1035.4 hPa | 0 mm | 0.89 m/s, 200° | 123 W/m² | - |
| 1778013942 | 26.67° C | 35% | 1035.3 hPa | 0 mm | 2.24 m/s, 215° | 247 W/m² | - |
| 1778013638 | 26.11° C | 35% | 1035.4 hPa | 0 mm | 0.89 m/s, 176° | 228 W/m² | - |
| 1778013335 | 26.67° C | 35% | 1035.6 hPa | 0 mm | 1.79 m/s, 66° | 178 W/m² | - |
| 1778013032 | 26.67° C | 36% | 1035.7 hPa | 0 mm | 1.34 m/s, 197° | 226 W/m² | - |
| 1778012728 | 26.67° C | 35% | 1035.2 hPa | 0 mm | 0.89 m/s, 302° | 289 W/m² | - |
* Rain latest hour (hover to see other rain measurements)
** Current wind speed in m/s (hover to see current wind gust speed)